Flag for U.S.A. Weather past 2 weeks in Youngstown, Ohio, U.S.A.

Now
61 °F

Scattered clouds.


Feels Like: 61 °F
Forecast: 42 / 71 °F
Wind: 9 mph from North

Location: Youngstown-Warren Regional Airport

Current Time: Sep 18, 2014 at 8:00:45 PM

Latest Report: Sep 18, 2014 at 6:51 PM


Visibility: 10 mi

Pressure: 30.12 "Hg

Humidity: 67%

Dew point: 50 °F

Location of YoungstownLocation

Historic Weather in Youngstown — Graph

°F

Youngstown temperature yesterday

Maximum temperature yesterday: 65 °F (at 1:51 PM)
Minimum temperature yesterday: 42 °F (at 5:51 AM)
Average temperature yesterday: 55 °F

Past Weeks' High & Low Weather Summary

 TemperatureHumidityPressure
High86 °F (Sep 5, 1:51 PM)100% (Sep 6, 2:59 AM)30.36 "Hg (Sep 6, 2:59 AM)
Low41 °F (Sep 15, 4:51 AM)41% (Sep 7, 4:51 PM)29.70 "Hg (Sep 11, 3:51 AM)
Average62 °F79%30.10 "Hg
* Reported Sep 3 6:51 PM — Sep 18 6:51 PM, Youngstown, Weather by CustomWeather, © 2014

Note: Actual official high and low records may vary slightly from our data, if they occured in-between our weather recording intervals... More about our weather records

Advertising

Youngstown weather history for previous 24 hours

 ConditionsComfort  
Time TempWeatherWind HumidityBarometerVisibility
6:51 PM
Sep 18
61 °FScattered clouds.9 mph67%30.12 "Hg10 mi
5:51 PM64 °FScattered clouds.14 mph61%30.11 "Hg10 mi
4:51 PM65 °FScattered clouds.8 mph59%30.10 "Hg10 mi
3:51 PM66 °FPartly sunny.7 mph56%30.10 "Hg10 mi
2:51 PM68 °FPartly sunny.5 mph51%30.10 "Hg10 mi
1:51 PM67 °FScattered clouds.8 mph53%30.11 "Hg10 mi
12:51 PM66 °FPartly sunny.6 mph56%30.11 "Hg10 mi
11:51 AM65 °FPartly sunny.6 mph54%30.10 "Hg10 mi
10:51 AM63 °FPassing clouds.8 mph65%30.10 "Hg10 mi
9:51 AM58 °FScattered clouds.5 mph75%30.09 "Hg10 mi
8:51 AM51 °FFog.No wind96%30.07 "Hg3 mi
8:00 AM46 °FFog.No wind93%30.07 "Hg1 mi
6:56 AM45 °FFog.No wind100%30.05 "Hg0 mi
5:51 AM45 °FFog.No wind97%30.04 "Hg1 mi
4:57 AM45 °FFog.No wind100%30.03 "Hg4 mi
3:51 AM46 °FPassing clouds.No wind93%30.02 "Hg9 mi
2:51 AM46 °FPassing clouds.No wind96%30.01 "Hg9 mi
1:51 AM47 °FPassing clouds.No wind97%30.01 "Hg10 mi
12:51 AM48 °FPassing clouds.No wind96%30.01 "Hg10 mi
11:51 PM
Sep 17
49 °FPassing clouds.No wind97%30.01 "Hg10 mi
10:51 PM49 °FPassing clouds.3 mph93%30.01 "Hg10 mi
9:51 PM54 °FPassing clouds.5 mph83%30.00 "Hg10 mi
8:51 PM56 °FPassing clouds.8 mph77%30.00 "Hg10 mi
Weather by CustomWeather, © 2014

See weather overviewHow to use our weather pages